Regional Weather Roundup
Issued by NWS

Home | Current Version | Previous Version | Graphics & Text | Print | Product List | Glossary On
Versions: 1 2 3 4 5 6 7 8 9 10 11 12 13 14 15 16 17 18 19 20 21 22 23 24 25 26 27 28 29 30 31 32 33 34 35 36 37 38 39 40 41 42 43 44 45 46 47 48 49 50
000
ASUS45 KPSR 301210
RWRAZ

ARIZONA REGIONAL HOURLY WEATHER ROUNDUP
NATIONAL WEATHER SERVICE PHOENIX AZ
500 AM MST THU OCT 30 2014

NOTE: FAIR INDICATES FEW OR NO CLOUDS BELOW 12,000 FEET WITH NO
SIGNIFICANT WEATHER AND/OR OBSTRUCTIONS TO VISIBILITY.

AZZ001>003-036-301300-
NORTHWEST ARIZONA

CITY           SKY/WX    TMP DP  RH WIND       PRES   REMARKS
BULLHEAD CITY  CLEAR     63  28  27 CALM      30.00S
KINGMAN        CLEAR     49  29  46 E5        30.13S
6HR MIN TEMP:  45; 6HR MAX TEMP:  56;

$$

AZZ004>008-015-016-018-301300-
NORTH CENTRAL ARIZONA

CITY           SKY/WX    TMP DP  RH WIND       PRES   REMARKS
GRAND CANYON   PTCLDY    29  18  63 NE5       30.33F WCI  24
6HR MIN TEMP:  27; 6HR MAX TEMP:  34;

PRESCOTT       PTCLDY    43  30  60 S6        30.23S
6HR MIN TEMP:  41; 6HR MAX TEMP:  52;

FLAGSTAFF      PTCLDY    28  21  75 CALM      30.35R
6HR MIN TEMP:  27; 6HR MAX TEMP:  35;

PAYSON         CLEAR     57  25  28 NE5       30.24R
PAGE           PTCLDY    47  22  37 CALM      30.26R
6HR MIN TEMP:  47; 6HR MAX TEMP:  55;

$$

AZZ009>014-017-301300-
NORTHEAST ARIZONA

CITY           SKY/WX    TMP DP  RH WIND       PRES   REMARKS
WINSLOW        CLOUDY    33  24  69 CALM      30.28R
6HR MIN TEMP:  32; 6HR MAX TEMP:  48;

SAINT JOHNS    CLOUDY    36  26  67 CALM      30.29S
6HR MIN TEMP:  34; 6HR MAX TEMP:  50;

WINDOW ROCK    MOCLDY    29  13  51 CALM      30.36R
6HR MIN TEMP:  27; 6HR MAX TEMP:  37;

SHOW LOW       PTCLDY    34  23  64 CALM      30.33R HAZE
$$

AZZ023-301300-
GREATER PHOENIX AREA

CITY           SKY/WX    TMP DP  RH WIND       PRES   REMARKS
PHOENIX        CLEAR     67  45  45 E5        29.97R
6HR MIN TEMP:  67; 6HR MAX TEMP:  74;

BUCKEYE          N/A     55  37  50 N3        29.98S
LUKE AFB       CLEAR     61  42  49 N8        29.98R
6HR MIN TEMP:  60; 6HR MAX TEMP:  68;

DEER VALLEY    CLEAR     68  39  34 N8        29.99R
6HR MIN TEMP:  64; 6HR MAX TEMP:  73;

SCOTTSDALE     CLEAR     64  45  49 CALM      30.00R
6HR MIN TEMP:  64; 6HR MAX TEMP:  73;

MESA-GATEWAY   PTCLDY    61  39  44 E6        30.01S
$$

AZZ027-028-301300-
SOUTHWEST MARICOPA COUNTY AND PINAL COUNTY

CITY           SKY/WX    TMP DP  RH WIND       PRES   REMARKS
CASA GRANDE    CLEAR     55  41  58 CALM      30.00S
6HR MIN TEMP:  55; 6HR MAX TEMP:  66;

$$

AZZ503-504-507>509-301300-
SOUTHEAST ARIZONA

CITY           SKY/WX    TMP DP  RH WIND       PRES   REMARKS
TUCSON           N/A     59  40  49 SE8       30.08R
6HR MIN TEMP:  59; 6HR MAX TEMP:  67;

DAVIS-MONTHAN  CLEAR     59  40  48 SE3       30.06S
6HR MIN TEMP:  56; 6HR MAX TEMP:  63;

NOGALES        CLEAR     49  38  65 CALM      30.13R
6HR MIN TEMP:  47; 6HR MAX TEMP:  57;

SIERRA VISTA   CLEAR     54  37  54 CALM      30.18S
DOUGLAS        CLEAR     47  39  74 E5        30.16R
6HR MIN TEMP:  45; 6HR MAX TEMP:  55;

SAFFORD        CLEAR     50  38  63 CALM      30.12R
6HR MIN TEMP:  50; 6HR MAX TEMP:  59;

$$

AZZ020-021-025-026-031-301300-
SOUTHWEST ARIZONA

CITY           SKY/WX    TMP DP  RH WIND       PRES   REMARKS
YUMA           PTCLDY    67  36  31 NE3       29.92S
6HR MIN TEMP:  66; 6HR MAX TEMP:  73;

$$

CAZ031-033-041-043-047-048-061-301300-
SOUTHERN CALIFORNIA

CITY           SKY/WX    TMP DP  RH WIND       PRES   REMARKS
DOWNTOWN L.A.  PTCLDY    61  56  83 CALM      29.97S
6HR MIN TEMP:  61; 6HR MAX TEMP:  66;

L.A. AIRPORT   MOCLDY    64  63  97 CALM      29.97S
6HR MIN TEMP:  64; 6HR MAX TEMP:  68;

SAN DIEGO      MOCLDY    64  61  88 NE5       29.98S FOG
6HR MIN TEMP:  63; 6HR MAX TEMP:  68;

BURBANK        PTCLDY    61  41  47 CALM      29.98S
6HR MIN TEMP:  60; 6HR MAX TEMP:  68;

ONTARIO        MOCLDY    60  50  69 CALM      29.99R
6HR MIN TEMP:  59; 6HR MAX TEMP:  69;

RIVERSIDE      PTCLDY    59  50  72 CALM      29.99S
6HR MIN TEMP:  57; 6HR MAX TEMP:  66;

PALM SPRINGS   PTCLDY    66  30  26 MISG      29.97S
6HR MIN TEMP:  65; 6HR MAX TEMP:  73;

EL CENTRO NAS  PTCLDY    57  25  29 W9        29.92S
6HR MIN TEMP:  57; 6HR MAX TEMP:  67;

IMPERIAL       PTCLDY    59  31  34 W7        29.92S
6HR MIN TEMP:  58; 6HR MAX TEMP:  66;

BLYTHE         CLEAR     61  28  28 NW5       29.96S
6HR MIN TEMP:  58; 6HR MAX TEMP:  69;

NEEDLES        CLEAR     62  19  19 W5        29.99S
6HR MIN TEMP:  61; 6HR MAX TEMP:  71;

$$

NVZ020-UTZ003-301300-
SOUTHERN NEVADA-UTAH

CITY           SKY/WX    TMP DP  RH WIND       PRES   REMARKS
LAS VEGAS      CLEAR     58  23  26 SW8       30.04S
6HR MIN TEMP:  58; 6HR MAX TEMP:  65;

SALT LAKE CITY CLEAR     42  29  59 S3        30.27S
6HR MIN TEMP:  39; 6HR MAX TEMP:  48;

$$

NMZ009-TXZ055-301300-
NEW MEXICO-WEST TEXAS

CITY           SKY/WX    TMP DP  RH WIND       PRES   REMARKS
ALBUQUERQUE    CLEAR     50  12  21 N12       30.29R
6HR MIN TEMP:  49; 6HR MAX TEMP:  59;

EL PASO        CLEAR     53  42  66 N8        30.17R
6HR MIN TEMP:  51; 6HR MAX TEMP:  61;

$$


........................KEY........................
SKY/WX - SKY CONDITION/WEATHER
TMP    - TEMPERATURE IN FAHRENHEIT
DP     - DEW POINT IN FAHRENHEIT
RH     - RELATIVE HUMIDITY IN PERCENT
WIND   - DIRECTION AND SPEED IN MILES PER HOUR (MPH)
VRB    - VARIABLE WIND DIRECTION
PRES   - MEAN SEA LEVEL PRESSURE IN INCHES OF MERCURY
         F - FALLING PRESSURE   R - RISING PRESSURE
         S - STEADY PRESSURE
VSB    - VISIBILITY IN MILES
HX     - HEAT INDEX IN FAHRENHEIT
WCI    - WIND CHILL INDEX IN FAHRENHEIT
TC     - TEMPERATURE IN CELSIUS WHICH IS ALSO KNOWN AS
         TEMPERATURE IN CENTIGRADE
AFB    - AIR FORCE BASE
         LUKE AFB IS LUKE AIR FORCE BASE
         DAVIS-MONTHAN IS DAVIS-MONTHAN AIR FORCE BASE
NAS    - NAVAL AIR STATION
         EL CENTRO NAS IS EL CENTRO NAVAL AIR STATION
N/A    - NOT AVAILABLE



USA.gov is the U.S. government's official web portal to all federal, state and local government web resources and services.